Regional Weather Roundup
Issued by NWS

Home | Current Version | Previous Version | Graphics & Text | Print | Product List | Glossary On
Versions: 1 2 3 4 5 6 7 8 9 10 11 12 13 14 15 16 17 18 19 20 21 22 23 24 25 26 27 28 29 30 31 32 33 34 35 36 37 38 39 40 41 42 43 44 45 46 47 48 49 50
000
ASUS43 KDMX 261206
RWRIA

WEATHER ROUNDUP FOR IOWA
NATIONAL WEATHER SERVICE DES MOINES IA
700 AM CDT FRI MAY 26 2017

NOTE: "FAIR" INDICATES FEW OR NO CLOUDS BELOW 12,000 FEET WITH NO
SIGNIFICANT WEATHER AND/OR OBSTRUCTIONS TO VISIBILITY.

* - THESE STATIONS ARE NOT NWS STATIONS...THUS NOT UNDER NWS
QUALITY CONTROL.  THEY ALSO DO NOT REPORT WEATHER SUCH
AS PRECIPITATION OR FOG.

IAZ001>003-012>014-020>022-031>034-043>046-261300-
   NORTHWEST IOWA

CITY           SKY/WX    TMP DP  RH WIND       PRES   REMARKS
CARROLL *      CLOUDY    59  55  88 SE6       29.70R
CHEROKEE *     CLOUDY    58  57  96 CALM      29.71R
DENISON *      PTSUNNY   59  55  88 CALM      29.72R
LE MARS *      CLOUDY    55  54  94 CALM      29.72R
ORANGE CITY *  PTSUNNY   57  55  94 CALM      29.72R
SHELDON *      PTSUNNY   55  52  88 CALM      29.70R
SIOUX CITY     CLOUDY    59  55  87 NW12      29.72R
6HR MIN TEMP:  57; 6HR MAX TEMP:  60;

SPENCER        CLOUDY    58  55  90 CALM      29.71R
6HR MIN TEMP:  56; 6HR MAX TEMP:  61;

STORM LAKE *   CLOUDY    59  54  82 CALM      29.71R
$$

IAZ055>058-069>071-079>083-090>094-261300-
   SOUTHWEST IOWA

CITY           SKY/WX    TMP DP  RH WIND       PRES   REMARKS
ATLANTIC *     CLOUDY    59  55  88 N3        29.70R
AUDUBON *      PTSUNNY   57  54  88 CALM      29.71R
CLARINDA *     PTSUNNY   59  59 100 CALM      29.71R
COUNCIL BLFS * CLOUDY    61  59  94 CALM      29.70R
CRESTON *      CLOUDY    59  57  94 SE3       29.72R
HARLAN  *      CLOUDY    59  57  94 CALM      29.73R
LAMONI         LGT RAIN  60  56  86 S7        29.70R FOG
6HR MIN TEMP:  59; 6HR MAX TEMP:  62; 6HR PCP:  0.09;

RED OAK *      CLOUDY    61  57  88 MISG      29.70R
SHENANDOAH *   CLOUDY    61  59  94 N3        29.70R
$$

IAZ047>049-059>061-072>074-084-261300-
   CENTRAL IOWA

CITY           SKY/WX    TMP DP  RH WIND       PRES   REMARKS
AMES           CLOUDY    59  53  80 SE5       29.70R
6HR MIN TEMP:  53; 6HR MAX TEMP:  59;

ANKENY *       CLOUDY    61  54  77 E7        29.70R
BOONE *        CLOUDY    59  55  88 SE7       29.70R
CHARITON *     CLOUDY    59  55  88 E3        29.69R
DES MOINES     CLOUDY    61  53  75 E6        29.69R
6HR MIN TEMP:  61; 6HR MAX TEMP:  65;

GRINNELL*      CLOUDY    59  53  78 E8        29.72R
KNOXVILLE *    CLOUDY    59  52  77 SE5       29.68R
MARSHALLTOWN   CLOUDY    60  54  80 SE9       29.72R
6HR MIN TEMP:  55; 6HR MAX TEMP:  60;

NEWTON *       CLOUDY    59  54  82 E8        29.69S
PELLA *        CLOUDY    60  52  75 SE5       29.70R
PERRY *        CLOUDY    59  55  87 E7        29.69R
$$

IAZ004>006-015-016-023>025-035-036-261300-
   NORTH CENTRAL IOWA

CITY           SKY/WX    TMP DP  RH WIND       PRES   REMARKS
ALGONA *       CLOUDY    59  52  77 SE7       29.71R
CLARION *      CLOUDY    59  54  82 SE14      29.71R
ESTHERVILLE    CLOUDY    57  55  93 S3        29.70R
6HR MIN TEMP:  55; 6HR MAX TEMP:  58;

FORT DODGE *   CLOUDY    57  52  82 CALM      29.71R
MASON CITY     CLOUDY    56  51  84 SE5       29.73S
6HR MIN TEMP:  52; 6HR MAX TEMP:  58;

FOREST CITY *  PTSUNNY   57  46  67 SE5       29.71F
WEBSTER CITY * CLOUDY    57  52  82 SE8       29.69R
IOWA FALLS *   PTSUNNY   58  54  85 SE6       29.73R
$$

IAZ007>011-017>019-026>030-037>042-050>054-066-261300-
   NORTHEAST IOWA

CITY           SKY/WX    TMP DP  RH WIND       PRES   REMARKS
CEDAR RAPIDS   PTSUNNY   59  56  89 E12       29.73R
6HR MIN TEMP:  54; 6HR MAX TEMP:  59;

CHARLES CITY * MOSUNNY   57  55  94 E7        29.73S
CLINTON *      CLOUDY    61  57  87 SE10      29.80R
DECORAH *      CLOUDY    57  54  88 VRB7      29.74S
DUBUQUE        MOSUNNY   59  55  87 SE8       29.78S
6HR MIN TEMP:  54; 6HR MAX TEMP:  59;

MONTICELLO *   CLOUDY    59  55  88 SE9       29.76R
OELWEIN *      CLOUDY    59  55  88 SE9       29.75R
WATERLOO       CLOUDY    60  53  77 SE6       29.73R
6HR MIN TEMP:  52; 6HR MAX TEMP:  60;

$$

IAZ064-065-067-068-078-261300-
   EAST CENTRAL IOWA

CITY           SKY/WX    TMP DP  RH WIND       PRES   REMARKS
DAVENPORT      MOSUNNY   60  55  83 SE9       29.79S
6HR MIN TEMP:  56; 6HR MAX TEMP:  61;

IOWA CITY      CLOUDY    63  54  72 SE12      29.76R
6HR MIN TEMP:  59; 6HR MAX TEMP:  63;

MT. PLEASANT * CLOUDY    59  53  79 E12       29.74F
MUSCATINE *    CLOUDY    61  55  82 SE7       29.77R
QUAD CITIES    SUNNY     59  55  87 E7        29.78R
6HR MIN TEMP:  56; 6HR MAX TEMP:  61; 6HR PCP: TRACE;

$$

IAZ062-063-075>077-085>089-095>099-261300-
   SOUTHEAST IOWA

CITY           SKY/WX    TMP DP  RH WIND       PRES   REMARKS
BURLINGTON     CLOUDY    60  55  83 SE6       29.77R
6HR MIN TEMP:  58; 6HR MAX TEMP:  63;

FAIRFIELD *    CLOUDY    59  54  82 E13       29.69F
FORT MADISON * CLOUDY    61  54  77 SE9       29.76S
KEOKUK *       CLOUDY    61  55  82 SE8       29.76R
OSKALOOSA *    LGT RAIN  58  54  85 S9        29.71R
CENTERVILLE *    N/A     59  57  94 CALM      29.69R
OTTUMWA        LGT RAIN  58  56  93 CALM      29.69F
6HR MIN TEMP:  58; 6HR MAX TEMP:  63; 6HR PCP:  0.02;

WASHINGTON *   CLOUDY    61  55  82 SE14      29.75S
$$

ABBREVIATIONS USED IN REMARKS
   TC - TEMPERATURES IN CELSIUS
  WCI - WIND CHILL INDEX
   HX - HEAT INDEX
  VSB - VISIBILITY
$$





USA.gov is the U.S. government's official web portal to all federal, state and local government web resources and services.